Bowling Green, KY

6:22 PM CDT on April 26, 2018 (GMT -0500)
Bowling Green-Warren County Regional

Weather History for KBWG - March, 2012

Change the Weather History Date:

Tuesday, March 6, 2012

  Actual Average Record
Temperature  
Mean Temperature 51 °F 45 °F  
Max Temperature 70 °F 56 °F 84 °F (1910)
Min Temperature 32 °F 34 °F 1 °F (1960)
Degree Days  
Heating Degree Days 14 20  
Month to date heating degree days 90 123  
Since 1 July heating degree days 2700 3321  
Cooling Degree Days 0 0  
Month to date cooling degree days 0 0  
Year to date cooling degree days 0 0  
Growing Degree Days 2 (Base 50)    
Moisture  
Dew Point 23 °F    
Average Humidity 39    
Maximum Humidity 61    
Minimum Humidity 16    
Precipitation  
Precipitation 0.00 in 0.14 in 2.41 in (1967)
Month to date precipitation 0.33 0.81  
Year to date precipitation 6.88 8.38  
Snow  
Snow 0.00 in 0.00 in 3.00 in (1917)
Month to date snowfall 0.0 0.2  
Since 1 July snowfall 1.4 8.0  
Snow Depth 0.00 in    
Sea Level Pressure  
Sea Level Pressure 30.36 in    
Wind  
Wind Speed 10 mph (South)    
Max Wind Speed 22 mph    
Max Gust Speed 32 mph    
Visibility 10 miles    
Events      
T = Trace of Precipitation, MM = Missing Value Source: NWS Daily Summary

Daily Weather History Graph

Daily Weather History Graph

Search for Another Location

Airport or City:

Astronomy

Mar. 06, 2012 Rise Set
Actual Time 6:08 AM CST 5:45 PM CST
Civil Twilight 5:43 AM CST 6:11 PM CST
Nautical Twilight 5:13 AM CST 6:41 PM CST
Astronomical Twilight 4:42 AM CST 7:11 PM CST
Moon 4:12 PM CST (3/6) 4:42 AM CST (3/6)
Length of Visible Light 12h 28m
Length of Day
11h 36m
Waxing Gibbous, 96% of the Moon is Illuminated
Mar 6
Waxing Gibbous
Mar 8
Full
Mar 14
Last Quarter
Mar 22
New
Mar 30
First Quarter

Hourly Weather History & Observations

Time (CST) Temp. Windchill Dew Point Humidity Pressure Visibility Wind Dir Wind Speed Gust Speed Precip Events Conditions
12:53 AM 34.0 °F - 21.0 °F 59% 30.44 in 10.0 mi Calm Calm - N/A   Clear
1:53 AM 33.1 °F 30.0 °F 21.0 °F 61% 30.43 in 10.0 mi SE 3.5 mph - N/A   Clear
2:53 AM 34.0 °F - 21.0 °F 59% 30.42 in 10.0 mi Calm Calm - N/A   Clear
3:53 AM 35.1 °F 30.1 °F 21.0 °F 57% 30.42 in 10.0 mi South 5.8 mph - N/A   Clear
4:53 AM 37.0 °F 32.4 °F 21.0 °F 52% 30.40 in 10.0 mi SSE 5.8 mph - N/A   Clear
5:53 AM 37.0 °F 31.6 °F 21.9 °F 54% 30.41 in 10.0 mi SSE 6.9 mph - N/A   Clear
6:53 AM 36.0 °F 32.1 °F 23.0 °F 59% 30.42 in 10.0 mi SE 4.6 mph - N/A   Clear
7:53 AM 43.0 °F 38.2 °F 24.1 °F 47% 30.42 in 10.0 mi SSE 8.1 mph - N/A   Clear
8:53 AM 53.1 °F - 24.1 °F 32% 30.42 in 10.0 mi South 13.8 mph 21.9 mph N/A   Clear
9:53 AM 59.0 °F - 19.0 °F 21% 30.41 in 10.0 mi South 17.3 mph - N/A   Clear
10:53 AM 62.1 °F - 19.9 °F 20% 30.40 in 10.0 mi South 13.8 mph - N/A   Clear
11:53 AM 64.9 °F - 21.9 °F 19% 30.37 in 10.0 mi SSW 13.8 mph - N/A   Clear
12:53 PM 68.0 °F - 25.0 °F 20% 30.33 in 10.0 mi South 13.8 mph 20.7 mph N/A   Clear
1:53 PM 70.0 °F - 25.0 °F 18% 30.30 in 10.0 mi South 16.1 mph 24.2 mph N/A   Clear
2:53 PM 70.0 °F - 21.9 °F 16% 30.29 in 10.0 mi SSW 18.4 mph 23.0 mph N/A   Clear
3:53 PM 69.1 °F - 23.0 °F 18% 30.28 in 10.0 mi South 13.8 mph - N/A   Clear
4:53 PM 66.0 °F - 23.0 °F 20% 30.28 in 10.0 mi South 11.5 mph - N/A   Clear
5:53 PM 63.0 °F - 23.0 °F 22% 30.28 in 10.0 mi South 9.2 mph - N/A   Clear
6:53 PM 60.1 °F - 24.1 °F 25% 30.30 in 10.0 mi South 9.2 mph - N/A   Clear
8:53 PM 57.9 °F - 26.1 °F 30% 30.32 in 10.0 mi South 9.2 mph - N/A   Clear
9:53 PM 59.0 °F - 25.0 °F 27% 30.33 in 10.0 mi South 13.8 mph - N/A   Clear
10:53 PM 57.0 °F - 25.0 °F 29% 30.33 in 10.0 mi South 13.8 mph 20.7 mph N/A   Clear
11:53 PM 55.0 °F - 26.1 °F 33% 30.32 in 10.0 mi South 13.8 mph - N/A   Clear